Location: Highland Meadows Observing Site
(48.4428°N, 114.5461°W)
Time: 10:06:39
(UTC-06:00)

Amateur Radio Satellites - All Passes

Search period start: 23 July 2014 09:36
Search period end: 24 July 2014 09:36
Location: Highland Meadows Observing Site, 48.4428°N, 114.5461°W

Satellite Date Start Highest point End Downlink Frequencies (MHz)
Time Altitude Azimuth
ISS 23 Jul 09:45:53 09:48:06 17° 223° (SW) 09:50:18 145.800 FM
Saudisat 1A 23 Jul 09:48:26 09:52:14 29° 117° (ESE) 09:56:04 436.775 MHz
SO-67 23 Jul 10:24:12 10:25:23 11° 299° (WNW) 10:26:34 435.3500 MHz FM
Sapphire 23 Jul 10:29:22 10:34:03 28° 39° (NE) 10:38:42 437.095 MHz 1200 baud AX-25 AFSK
UKube-1 23 Jul 10:31:43 10:35:43 34° 97° (E) 10:39:40 145.840 MHz, 145.915 MHz
JAS-2 23 Jul 10:32:55 10:35:58 14° 315° (NW) 10:38:53 435.800 - 435.900 CW/SSB, 435.910 FM
HO-68 23 Jul 10:36:42 10:43:44 55° 101° (ESE) 10:50:41 435.675 MHz FM
PCSat 23 Jul 11:03:19 11:08:33 45° 47° (NE) 11:13:45 145.825 MHz
Oscar 11 23 Jul 11:23:36 11:27:54 61° 101° (E) 11:32:12 145.825 FM, Beacon 2401.500 USB
KITSAT 1 23 Jul 11:25:50 11:32:47 30° 335° (NNW) 11:39:45 435.175 FM
Saudisat 1A 23 Jul 11:27:26 11:31:41 45° 316° (NW) 11:35:58 436.775 MHz
FUNcube-1 23 Jul 11:27:56 11:31:28 26° 94° (E) 11:34:59 145.950 - 145.970 MHz USB
UKube-1 23 Jul 12:08:05 12:11:51 29° 295° (WNW) 12:15:35 145.840 MHz, 145.915 MHz
Sapphire 23 Jul 12:12:32 12:17:57 68° 240° (WSW) 12:23:19 437.095 MHz 1200 baud AX-25 AFSK
JAS-1B 23 Jul 12:16:43 12:20:45 14° 31° (NNE) 12:24:51 435.800 - 435.900 CW/SSB
HO-68 23 Jul 12:24:48 12:31:12 37° 302° (WNW) 12:37:36 435.675 MHz FM
Oscar 16 23 Jul 12:31:53 12:34:33 14° 54° (NE) 12:37:13 437.025 USB, Beacon 2401.1428
PCSat 23 Jul 12:46:58 12:51:54 36° 247° (WSW) 12:56:47 145.825 MHz
AO-27 23 Jul 12:58:05 13:00:12 13° 52° (NE) 13:02:19 436.795 MHz FM
Oscar 11 23 Jul 13:00:50 13:03:40 17° 300° (WNW) 13:06:30 145.825 FM, Beacon 2401.500 USB
Uribyol 2 23 Jul 13:01:10 13:03:39 14° 53° (NE) 13:06:07 436.500 FM
FUNcube-1 23 Jul 13:04:11 13:07:56 33° 292° (WNW) 13:11:40 145.950 - 145.970 MHz USB
AO-Echo 23 Jul 13:09:15 13:12:13 15° 54° (NE) 13:15:11 ?
Saudisat 1A 23 Jul 13:09:57 13:12:22 14° 339° (NNW) 13:14:48 436.775 MHz
KITSAT 1 23 Jul 13:25:01 13:31:07 22° 4° (N) 13:37:13 435.175 FM
Oscar 19 23 Jul 13:41:01 13:45:52 46° 68° (ENE) 13:50:46 437.125 CW, 437.150 USB
Sapphire 23 Jul 13:58:54 14:00:21 11° 259° (WSW) 14:01:48 437.095 MHz 1200 baud AX-25 AFSK
JAS-1B 23 Jul 14:00:27 14:08:24 38° 55° (NE) 14:17:04 435.800 - 435.900 CW/SSB
TMSAT-1 23 Jul 14:04:15 14:07:02 15° 54° (NE) 14:09:50 436.925 FM
Oscar 16 23 Jul 14:08:00 14:13:07 81° 73° (ENE) 14:18:16 437.025 USB, Beacon 2401.1428
AO-7 23 Jul 14:14:09 14:18:53 17° 37° (NE) 14:23:37 29.400 - 29.500 MHz
ITAMSAT 1 23 Jul 14:16:15 14:21:15 47° 68° (ENE) 14:26:15 435.822 SSB
HO-68 23 Jul 14:16:30 14:16:56 10° 324° (NW) 14:17:22 435.675 MHz FM
Gurwin Techsat 1B 23 Jul 14:22:43 14:27:01 26° 61° (ENE) 14:31:19 435.225 FM
AO-27 23 Jul 14:33:36 14:38:46 67° 71° (ENE) 14:43:59 436.795 MHz FM
RS-15 23 Jul 14:33:51 14:43:33 37° 108° (ESE) 14:53:04 29.354 - 29.394 USB, Beacon 29.352 USB
Uribyol 2 23 Jul 14:37:04 14:42:16 74° 72° (ENE) 14:47:28 436.500 FM
AO-Echo 23 Jul 14:44:53 14:50:10 81° 74° (ENE) 14:55:32 ?
SO-50 23 Jul 14:51:24 14:55:31 37° 119° (ESE) 14:59:43 436.795 FM
Uosat F 23 Jul 15:02:17 15:04:03 12° 52° (NE) 15:05:49 435.120 FM
Oscar 19 23 Jul 15:21:08 15:25:26 27° 266° (W) 15:29:46 437.125 CW, 437.150 USB
KITSAT 1 23 Jul 15:21:46 15:29:10 37° 33° (NNE) 15:36:31 435.175 FM
TMSAT-1 23 Jul 15:40:50 15:46:08 78° 73° (ENE) 15:51:27 436.925 FM
UOSAT-12 23 Jul 15:48:35 15:50:25 12° 108° (ESE) 15:52:16 437.025 FM, 437.400 FM
JAS-1B 23 Jul 15:49:31 15:58:10 72° 258° (WSW) 16:08:00 435.800 - 435.900 CW/SSB
Oscar 16 23 Jul 15:50:10 15:53:07 15° 272° (W) 15:56:06 437.025 USB, Beacon 2401.1428
ITAMSAT 1 23 Jul 15:56:33 16:00:57 27° 266° (W) 16:05:23 435.822 SSB
Gurwin Techsat 1B 23 Jul 16:01:28 16:06:40 55° 260° (W) 16:11:55 435.225 FM
AO-7 23 Jul 16:01:51 16:09:50 52° 60° (ENE) 16:17:51 29.400 - 29.500 MHz
AO-27 23 Jul 16:15:04 16:18:47 19° 270° (W) 16:22:30 436.795 MHz FM
Uribyol 2 23 Jul 16:18:54 16:22:18 17° 271° (W) 16:25:43 436.500 FM
AO-Echo 23 Jul 16:26:18 16:29:34 16° 272° (W) 16:32:53 ?
SO-50 23 Jul 16:31:52 16:36:05 38° 319° (NW) 16:40:24 436.795 FM
Saudisat 1A 23 Jul 16:32:09 16:35:15 18° 28° (NNE) 16:38:21 436.775 MHz
Uosat F 23 Jul 16:36:54 16:41:54 65° 71° (ENE) 16:46:56 435.120 FM
RS-15 23 Jul 16:43:57 16:55:03 76° 312° (NW) 17:06:02 29.354 - 29.394 USB, Beacon 29.352 USB
OPAL 23 Jul 17:03:51 17:08:10 28° 97° (E) 17:12:30 ?
JAS-2 23 Jul 17:16:46 17:22:43 25° 55° (NE) 17:28:23 435.800 - 435.900 CW/SSB, 435.910 FM
KITSAT 1 23 Jul 17:17:17 17:25:24 80° 237° (WSW) 17:33:27 435.175 FM
TMSAT-1 23 Jul 17:23:21 17:26:41 17° 272° (W) 17:30:02 436.925 FM
UOSAT-12 23 Jul 17:25:09 17:29:47 81° 127° (SE) 17:34:31 437.025 FM, 437.400 FM
JAS-1B 23 Jul 17:44:43 17:50:32 19° 281° (W) 17:56:48 435.800 - 435.900 CW/SSB
AO-7 23 Jul 17:54:53 18:02:46 45° 261° (W) 18:10:43 29.400 - 29.500 MHz
Hamsat 23 Jul 18:06:45 18:10:34 36° 69° (ENE) 18:14:26 145.90 MHz
Saudisat 1A 23 Jul 18:11:10 18:15:36 73° 49° (NE) 18:20:00 436.775 MHz
SO-50 23 Jul 18:15:34 18:17:56 14° 343° (NNW) 18:20:20 436.795 FM
Uosat F 23 Jul 18:17:38 18:21:10 19° 269° (W) 18:24:43 435.120 FM
OPAL 23 Jul 18:42:27 18:47:13 45° 295° (WNW) 18:52:02 ?
JAS-2 23 Jul 18:59:03 19:06:56 89° 74° (ENE) 19:14:26 435.800 - 435.900 CW/SSB, 435.910 FM
RS-15 23 Jul 18:59:25 19:09:24 38° 343° (NNW) 19:19:25 29.354 - 29.394 USB, Beacon 29.352 USB
UOSAT-12 23 Jul 19:06:41 19:10:29 24° 328° (NNW) 19:14:20 437.025 FM, 437.400 FM
KITSAT 1 23 Jul 19:14:11 19:19:34 20° 258° (WSW) 19:24:57 435.175 FM
STRAND 1 23 Jul 19:17:54 19:21:11 17° 89° (E) 19:24:26 ?
HO-68 23 Jul 19:25:26 19:29:30 16° 44° (NE) 19:33:34 435.675 MHz FM
SO-67 23 Jul 19:26:06 19:29:19 37° 71° (ENE) 19:32:35 435.3500 MHz FM
Hamsat 23 Jul 19:43:15 19:46:39 24° 267° (W) 19:50:06 145.90 MHz
Saudisat 1A 23 Jul 19:51:52 19:54:40 17° 248° (WSW) 19:57:28 436.775 MHz
SO-50 23 Jul 19:58:59 20:00:32 11° 8° (N) 20:02:05 436.795 FM
JAS-2 23 Jul 20:46:53 20:52:44 23° 273° (W) 20:58:25 435.800 - 435.900 CW/SSB, 435.910 FM
Oscar 11 23 Jul 20:49:57 20:50:59 11° 56° (NE) 20:52:01 145.825 FM, Beacon 2401.500 USB
UOSAT-12 23 Jul 20:50:35 20:52:20 12° 352° (N) 20:54:04 437.025 FM, 437.400 FM
STRAND 1 23 Jul 20:55:49 21:00:57 74° 288° (WNW) 21:06:02 ?
SO-67 23 Jul 21:00:20 21:02:35 16° 269° (W) 21:04:50 435.3500 MHz FM
HO-68 23 Jul 21:08:50 21:15:51 61° 66° (ENE) 21:22:53 435.675 MHz FM
RS-15 23 Jul 21:15:24 21:25:22 37° 17° (NNE) 21:35:28 29.354 - 29.394 USB, Beacon 29.352 USB
UKube-1 23 Jul 21:30:41 21:34:53 48° 70° (ENE) 21:39:07 145.840 MHz, 145.915 MHz
SO-50 23 Jul 21:39:00 21:42:47 23° 32° (NNE) 21:46:37 436.795 FM
Oscar 11 23 Jul 22:22:07 22:26:25 77° 74° (ENE) 22:30:45 145.825 FM, Beacon 2401.500 USB
FUNcube-1 23 Jul 22:27:54 22:31:52 35° 68° (ENE) 22:35:46 145.950 - 145.970 MHz USB
UOSAT-12 23 Jul 22:32:00 22:34:31 14° 17° (NNE) 22:37:02 437.025 FM, 437.400 FM
STRAND 1 23 Jul 22:36:55 22:39:17 13° 307° (NW) 22:41:38 ?
HO-68 23 Jul 22:57:41 23:03:57 32° 266° (W) 23:10:16 435.675 MHz FM
UKube-1 23 Jul 23:08:08 23:11:22 20° 268° (W) 23:14:37 145.840 MHz, 145.915 MHz
SO-50 23 Jul 23:19:10 23:23:55 84° 233° (SW) 23:28:44 436.795 FM
MaSat-1 23 Jul 23:24:49 23:28:40 45° 112° (ESE) 23:33:08 437.345 MHz
RS-15 23 Jul 23:28:46 23:39:48 74° 47° (NE) 23:51:09 29.354 - 29.394 USB, Beacon 29.352 USB
Oscar 11 24 Jul 00:01:22 00:03:10 12° 272° (W) 00:04:59 145.825 FM, Beacon 2401.500 USB
FUNcube-1 24 Jul 00:04:39 00:08:21 26° 265° (W) 00:12:00 145.950 - 145.970 MHz USB
UOSAT-12 24 Jul 00:11:34 00:16:00 37° 40° (NE) 00:20:23 437.025 FM, 437.400 FM
SO-50 24 Jul 01:01:31 01:03:48 13° 251° (WSW) 01:06:06 436.795 FM
MaSat-1 24 Jul 01:02:32 01:06:16 28° 315° (NW) 01:10:28 437.345 MHz
AO-40 24 Jul 01:35:45 07:01:53 31° 172° (S) 09:10:00 Beacon 2401.320
RS-15 24 Jul 01:41:39 01:51:26 39° 251° (WSW) 02:01:32 29.354 - 29.394 USB, Beacon 29.352 USB
Oscar 19 24 Jul 01:50:47 01:52:41 12° 86° (E) 01:54:35 437.125 CW, 437.150 USB
PCSat 24 Jul 01:50:58 01:54:20 17° 105° (ESE) 01:57:44 145.825 MHz
UOSAT-12 24 Jul 01:51:46 01:56:14 41° 240° (WSW) 02:00:38 437.025 FM, 437.400 FM
Oscar 16 24 Jul 02:16:36 02:20:31 22° 91° (E) 02:24:26 437.025 USB, Beacon 2401.1428
Lituanica SAT-1 24 Jul 02:19:23 02:21:31 79° 157° (SSE) 02:23:41 437.275 MHz beacon
ITAMSAT 1 24 Jul 02:27:23 02:29:22 12° 86° (E) 02:31:20 435.822 SSB
ISS 24 Jul 02:29:54 02:32:37 23° 141° (SE) 02:35:22 145.800 FM
AO-27 24 Jul 02:43:56 02:47:24 18° 89° (E) 02:50:50 436.795 MHz FM
OPAL 24 Jul 02:46:50 02:49:14 14° 51° (NE) 02:51:38 ?
Uribyol 2 24 Jul 02:46:57 02:50:38 19° 90° (E) 02:54:18 436.500 FM
AO-Echo 24 Jul 02:49:30 02:53:18 20° 90° (E) 02:57:01 ?
Sapphire 24 Jul 02:57:51 03:03:04 52° 117° (ESE) 03:08:20 437.095 MHz 1200 baud AX-25 AFSK
Oscar 19 24 Jul 03:27:40 03:32:51 81° 104° (ESE) 03:38:02 437.125 CW, 437.150 USB
PCSat 24 Jul 03:31:37 03:37:03 86° 304° (NW) 03:42:31 145.825 MHz
JAS-1B 24 Jul 03:31:44 03:40:42 39° 91° (E) 03:48:40 435.800 - 435.900 CW/SSB
Lituanica SAT-1 24 Jul 03:52:28 03:54:27 32° 356° (N) 03:56:28 437.275 MHz beacon
TMSAT-1 24 Jul 03:53:30 03:57:42 23° 92° (E) 04:01:53 436.925 FM
Oscar 16 24 Jul 03:55:12 04:00:16 59° 290° (WNW) 04:05:19 437.025 USB, Beacon 2401.1428
AO-7 24 Jul 04:04:06 04:04:43 10° 80° (E) 04:05:21 29.400 - 29.500 MHz
ITAMSAT 1 24 Jul 04:04:29 04:09:42 82° 105° (ESE) 04:14:53 435.822 SSB
ISS 24 Jul 04:05:42 04:09:04 82° 339° (NNW) 04:12:27 145.800 FM
Gurwin Techsat 1B 24 Jul 04:13:45 04:18:52 45° 98° (E) 04:23:56 435.225 FM
AO-27 24 Jul 04:22:16 04:27:28 72° 288° (WNW) 04:32:37 436.795 MHz FM
OPAL 24 Jul 04:22:23 04:27:20 76° 70° (ENE) 04:32:18 ?
Uribyol 2 24 Jul 04:25:28 04:30:36 65° 289° (WNW) 04:35:41 436.500 FM
AO-Echo 24 Jul 04:27:24 04:32:32 61° 289° (WNW) 04:37:29 ?
Sapphire 24 Jul 04:41:49 04:46:44 34° 318° (NW) 04:51:40 437.095 MHz 1200 baud AX-25 AFSK
Uosat F 24 Jul 04:42:18 04:45:08 15° 88° (E) 04:47:56 435.120 FM
Oscar 19 24 Jul 05:08:14 05:11:36 18° 303° (WNW) 05:14:58 437.125 CW, 437.150 USB
PCSat 24 Jul 05:17:02 05:21:16 23° 326° (NNW) 05:25:31 145.825 MHz
JAS-1B 24 Jul 05:22:01 05:31:41 65° 294° (WNW) 05:40:18 435.800 - 435.900 CW/SSB
Lituanica SAT-1 24 Jul 05:25:23 05:27:29 48° 15° (NNE) 05:29:36 437.275 MHz beacon
TMSAT-1 24 Jul 05:32:48 05:37:59 56° 290° (WNW) 05:43:09 436.925 FM
Oscar 16 24 Jul 05:37:23 05:38:36 11° 309° (NW) 05:39:49 437.025 USB, Beacon 2401.1428
ISS 24 Jul 05:42:46 05:46:02 46° 360° (N) 05:49:18 145.800 FM
ITAMSAT 1 24 Jul 05:45:11 05:48:35 18° 304° (NW) 05:51:58 435.822 SSB
AO-7 24 Jul 05:51:25 05:59:34 53° 102° (ESE) 06:07:38 29.400 - 29.500 MHz
Gurwin Techsat 1B 24 Jul 05:54:05 05:58:40 30° 297° (WNW) 06:03:14 435.225 FM
MaSat-1 24 Jul 06:03:14 06:05:19 12° 28° (NNE) 06:07:26 437.345 MHz
AO-27 24 Jul 06:03:44 06:06:06 13° 308° (NW) 06:08:28 436.795 MHz FM
OPAL 24 Jul 06:03:51 06:06:48 16° 269° (W) 06:09:46 ?
Uribyol 2 24 Jul 06:07:14 06:09:07 12° 309° (NW) 06:11:00 436.500 FM
AO-Echo 24 Jul 06:08:41 06:10:15 11° 309° (NW) 06:11:49 ?
Uosat F 24 Jul 06:19:30 06:24:34 81° 287° (WNW) 06:29:34 435.120 FM
Sapphire 24 Jul 06:29:21 06:31:52 13° 342° (NNW) 06:34:23 437.095 MHz 1200 baud AX-25 AFSK
STRAND 1 24 Jul 06:37:00 06:41:41 36° 65° (ENE) 06:46:22 ?
Lituanica SAT-1 24 Jul 06:58:19 07:00:10 24° 213° (SSW) 07:02:00 437.275 MHz beacon
PCSat 24 Jul 07:05:23 07:06:50 11° 352° (N) 07:08:17 145.825 MHz
JAS-1B 24 Jul 07:13:30 07:20:17 22° 317° (NW) 07:26:44 435.800 - 435.900 CW/SSB
TMSAT-1 24 Jul 07:15:41 07:16:49 11° 310° (NW) 07:17:57 436.925 FM
ISS 24 Jul 07:19:38 07:23:01 78° 19° (NNE) 07:26:23 145.800 FM
Hamsat 24 Jul 07:24:11 07:28:18 45° 98° (E) 07:32:25 145.90 MHz
MaSat-1 24 Jul 07:39:10 07:44:09 39° 50° (NE) 07:49:05 437.345 MHz
AO-7 24 Jul 07:44:30 07:52:15 45° 303° (WNW) 07:59:58 29.400 - 29.500 MHz
KITSAT 1 24 Jul 07:49:31 07:57:01 44° 113° (ESE) 08:04:31 435.175 FM
JAS-2 24 Jul 07:51:00 07:57:21 58° 99° (E) 08:02:55 435.800 - 435.900 CW/SSB, 435.910 FM
Uosat F 24 Jul 07:59:59 08:02:34 14° 306° (NW) 08:05:09 435.120 FM
STRAND 1 24 Jul 08:16:11 08:20:53 35° 264° (W) 08:25:36 ?
Sapphire 24 Jul 08:16:18 08:17:52 11° 9° (N) 08:19:27 437.095 MHz 1200 baud AX-25 AFSK
SO-67 24 Jul 08:19:25 08:22:27 27° 95° (E) 08:25:27 435.3500 MHz FM
PCSat 24 Jul 08:50:07 08:52:49 14° 19° (NNE) 08:55:30 145.825 MHz
ISS 24 Jul 08:56:40 08:59:30 25° 218° (SW) 09:02:19 145.800 FM
Hamsat 24 Jul 09:00:45 09:04:01 22° 296° (WNW) 09:07:18 145.90 MHz
MaSat-1 24 Jul 09:16:37 09:21:36 41° 249° (WSW) 09:26:26 437.345 MHz
